Orange, MA

1:21 PM EDT on July 25, 2016 (GMT -0400)
Orange Municipal

Weather History for KORE - January, 2014

Change the Weather History Date:

Monday, January 6, 2014

  Actual Average Record
Temperature  
Mean Temperature 40 °F -  
Max Temperature 55 °F 30 °F 66 °F (2007)
Min Temperature 23 °F 14 °F -6 °F (1999)
Degree Days  
Heating Degree Days 26    
Moisture  
Dew Point 41 °F    
Average Humidity 92    
Maximum Humidity 100    
Minimum Humidity 55    
Precipitation  
Precipitation 1.19 in - - ()
Sea Level Pressure  
Sea Level Pressure 29.49 in    
Wind  
Wind Speed 7 mph (SW)    
Max Wind Speed 24 mph    
Max Gust Speed 48 mph    
Visibility 4 miles    
Events Fog , Rain , Snow    
Averages and records for this station are not official NWS values.
T = Trace of Precipitation, MM = Missing Value Source: NWS Daily Summary

Daily Weather History Graph

Daily Weather History Graph

Search for Another Location

Airport or City:

Trip Planner

Search our weather history database for the weather conditions in past years. The results will help you decide how hot, cold, wet, or windy it might be!

Date:

Astronomy

Jan. 06, 2014 Rise Set
Actual Time 7:19 AM EST 4:31 PM EST
Civil Twilight 6:47 AM EST 5:03 PM EST
Nautical Twilight 6:12 AM EST 5:38 PM EST
Astronomical Twilight 5:37 AM EST 6:12 PM EST
Moon 10:24 AM EST (1/6) 11:10 PM EST (1/6)
Length of Visible Light 10h 15m
Length of Day
9h 12m
Waxing Crescent, 34% of the Moon is Illuminated
Jan 6
Waxing Crescent
Jan 7
First Quarter
Jan 15
Full
Jan 24
Last Quarter
Jan 30
New

Hourly Weather History & Observations

Time (EST) Temp. Windchill Dew Point Humidity Pressure Visibility Wind Dir Wind Speed Gust Speed Precip Events Conditions
12:15 AM 32.0 °F 27.5 °F 32.0 °F 100% 29.85 in 1.5 mi ESE 4.6 mph - 0.01 in Rain Light Freezing Rain
12:19 AM 36.0 °F 32.1 °F 35.1 °F 97% 29.85 in 2.0 mi SE 4.6 mph - 0.01 in   Overcast
12:43 AM 39.0 °F - 37.0 °F 93% 29.83 in 4.0 mi Calm Calm - 0.01 in   Overcast
12:52 AM 36.0 °F - 36.0 °F 100% 29.84 in 3.0 mi Calm Calm - 0.01 in Rain Light Rain
1:52 AM 41.0 °F 39.0 °F 39.9 °F 96% 29.79 in 9.0 mi Variable 3.5 mph - 0.00 in   Overcast
2:19 AM 39.0 °F - 37.9 °F 96% 29.74 in 2.5 mi Calm Calm - 0.00 in Rain Light Rain
2:23 AM 39.0 °F - 37.9 °F 96% 29.73 in 1.2 mi Calm Calm - 0.01 in Rain Light Rain
2:34 AM 42.1 °F 38.4 °F 41.0 °F 96% 29.72 in 2.0 mi SSE 5.8 mph - 0.02 in Rain Rain
2:45 AM 44.1 °F 39.0 °F 42.1 °F 93% 29.71 in 5.0 mi SSE 9.2 mph - 0.03 in Rain Light Rain
2:52 AM 44.1 °F 38.1 °F 43.0 °F 96% 29.72 in 9.0 mi SSE 11.5 mph - 0.03 in Rain Light Rain
3:20 AM 41.0 °F 37.1 °F 41.0 °F 100% 29.67 in 1.5 mi WSW 5.8 mph - 0.04 in Rain Light Rain
3:22 AM 39.9 °F 35.8 °F 39.9 °F 100% 29.67 in 1.0 mi WSW 5.8 mph - 0.05 in Rain Light Rain
3:42 AM 42.1 °F 40.2 °F 42.1 °F 100% 29.64 in 1.5 mi SSE 3.5 mph - 0.11 in Rain Light Rain
3:52 AM 42.1 °F 40.2 °F 41.0 °F 96% 29.65 in 1.2 mi Variable 3.5 mph - 0.15 in Rain Rain
3:55 AM 42.1 °F 40.2 °F 42.1 °F 100% 29.62 in 0.8 mi Variable 3.5 mph - 0.01 in Rain Rain
4:15 AM 46.0 °F 43.1 °F 44.1 °F 93% 29.60 in 1.2 mi SSE 5.8 mph - 0.15 in Rain Rain
4:20 AM 46.0 °F 42.5 °F 45.0 °F 96% 29.60 in 2.0 mi SSE 6.9 mph - 0.17 in Rain Rain
4:33 AM 45.0 °F 40.6 °F 45.0 °F 100% 29.60 in 1.2 mi South 8.1 mph - 0.19 in Rain Light Rain
4:37 AM 45.0 °F 40.6 °F 44.1 °F 97% 29.59 in 0.8 mi South 8.1 mph - 0.19 in Rain Light Rain
4:52 AM 45.0 °F 40.6 °F 44.1 °F 97% 29.61 in 1.0 mi South 8.1 mph - 0.19 in Rain Light Rain
5:07 AM 46.0 °F 42.5 °F 45.0 °F 96% 29.57 in 1.5 mi SSE 6.9 mph - 0.01 in Rain Light Rain
5:22 AM 45.0 °F 42.6 °F 45.0 °F 100% 29.56 in 1.0 mi South 4.6 mph - 0.01 in   Overcast
5:29 AM 45.0 °F 41.8 °F 44.1 °F 97% 29.54 in 0.5 mi SSE 5.8 mph - 0.01 in Fog Fog
5:52 AM 43.0 °F 40.3 °F 43.0 °F 100% 29.55 in 0.5 mi SW 4.6 mph - 0.02 in Fog Fog
6:06 AM 45.0 °F 43.5 °F 44.1 °F 97% 29.53 in 0.5 mi South 3.5 mph - 0.01 in Fog , Rain Light Rain
6:35 AM 46.9 °F - 46.9 °F 100% 29.51 in 0.8 mi SSE 4.6 mph - 0.04 in Rain Light Rain
6:52 AM 41.0 °F - 41.0 °F 100% 29.50 in 0.2 mi Calm Calm - 0.05 in Fog , Rain Light Rain
7:01 AM 43.0 °F 41.3 °F 42.1 °F 97% 29.48 in 0.2 mi South 3.5 mph - 0.01 in Fog , Rain Light Rain
7:25 AM 48.9 °F - 46.9 °F 93% 29.45 in 0.2 mi South 5.8 mph - 0.03 in Fog , Rain Light Rain
7:48 AM 51.8 °F - 51.8 °F 100% 29.43 in 0.5 mi South 8.1 mph - 0.06 in Fog , Rain Light Rain
7:52 AM 52.0 °F - 52.0 °F 100% 29.44 in 0.5 mi South 9.2 mph - 0.06 in Fog , Rain Light Rain
8:27 AM 53.1 °F - 53.1 °F 100% 29.40 in 1.2 mi South 10.4 mph - 0.09 in Rain Light Rain
8:30 AM 54.0 °F - 53.1 °F 97% 29.39 in 2.0 mi South 12.7 mph - 0.09 in Rain Light Rain
8:38 AM 54.0 °F - 53.1 °F 97% 29.38 in 6.0 mi South 13.8 mph 19.6 mph 0.10 in Rain Light Rain
8:52 AM 55.0 °F - 54.0 °F 96% 29.40 in 4.0 mi South 12.7 mph 24.2 mph 0.11 in Rain Rain
9:16 AM 54.0 °F - 53.1 °F 97% 29.39 in 1.8 mi South 24.2 mph 47.2 mph 0.08 in Rain Heavy Rain
9:24 AM 55.0 °F - 54.0 °F 96% 29.38 in 3.0 mi South 16.1 mph 48.3 mph 0.10 in Rain Rain
9:33 AM 55.0 °F - 54.0 °F 96% 29.37 in 5.0 mi South 16.1 mph 28.8 mph 0.12 in Rain Light Rain
9:52 AM 54.0 °F - 53.1 °F 97% 29.37 in 6.0 mi South 12.7 mph - 0.15 in Rain Rain
9:59 AM 54.0 °F - 54.0 °F 100% 29.35 in 6.0 mi South 15.0 mph 24.2 mph 0.00 in Rain Light Rain
10:06 AM 55.0 °F - 54.0 °F 96% 29.35 in 8.0 mi South 15.0 mph 24.2 mph 0.01 in Rain Light Rain
10:13 AM 55.0 °F - 54.0 °F 96% 29.34 in 6.0 mi South 13.8 mph 25.3 mph 0.01 in Rain Light Rain
10:52 AM 55.0 °F - 53.1 °F 93% 29.32 in 8.0 mi South 16.1 mph 28.8 mph 0.02 in Rain Light Rain
11:08 AM 55.0 °F - 53.1 °F 93% 29.32 in 2.5 mi SSW 21.9 mph 32.2 mph 0.02 in Rain Light Rain
11:17 AM 54.0 °F - 52.0 °F 93% 29.34 in 1.2 mi WSW 15.0 mph 41.4 mph 0.09 in Rain Rain
11:20 AM 54.0 °F - 52.0 °F 93% 29.36 in 1.5 mi West 23.0 mph 41.4 mph 0.10 in Rain Rain
11:24 AM 51.1 °F - 48.9 °F 92% 29.36 in 1.8 mi West 21.9 mph 33.4 mph 0.12 in Rain Rain
11:31 AM 48.0 °F - 46.0 °F 93% 29.35 in 2.0 mi WNW 16.1 mph 28.8 mph 0.16 in Rain Heavy Rain
11:39 AM 48.0 °F - 45.0 °F 89% 29.36 in 2.5 mi West 6.9 mph 25.3 mph 0.19 in Rain Rain
11:52 AM 46.9 °F - 45.0 °F 93% 29.36 in 3.0 mi NW 3.5 mph - 0.22 in Rain Light Rain
12:52 PM 46.0 °F - 44.1 °F 93% 29.32 in 10.0 mi Calm Calm - 0.05 in Rain Light Rain
1:20 PM 43.0 °F 38.8 °F 42.1 °F 97% 29.33 in 1.5 mi SSW 6.9 mph - 0.00 in Rain Light Rain
1:22 PM 43.0 °F 40.3 °F 42.1 °F 97% 29.32 in 1.0 mi SSW 4.6 mph - 0.00 in Rain Light Rain
1:29 PM 44.1 °F 41.5 °F 43.0 °F 96% 29.31 in 0.5 mi West 4.6 mph - 0.03 in Fog , Rain Heavy Rain
1:38 PM 45.0 °F 39.7 °F 42.1 °F 90% 29.34 in 1.5 mi SW 10.4 mph - 0.05 in Rain Light Rain
1:40 PM 45.0 °F 40.1 °F 42.1 °F 90% 29.34 in 3.0 mi SW 9.2 mph - 0.05 in Rain Light Rain
1:52 PM 46.0 °F 39.9 °F 42.1 °F 86% 29.34 in 2.5 mi WSW 13.8 mph 31.1 mph 0.07 in Rain Rain
2:00 PM 41.0 °F 31.1 °F 37.9 °F 89% 29.34 in 3.0 mi NW 23.0 mph 31.1 mph 0.02 in Rain Light Rain
2:06 PM 39.0 °F 29.3 °F 36.0 °F 89% 29.37 in 5.0 mi WNW 19.6 mph 27.6 mph 0.02 in Rain Light Rain
2:52 PM 34.0 °F 25.5 °F 30.0 °F 85% 29.41 in 3.0 mi WNW 11.5 mph 21.9 mph 0.06 in Snow Light Snow
2:56 PM 34.0 °F 23.8 °F 30.0 °F 85% 29.39 in 1.8 mi WNW 16.1 mph 24.2 mph 0.00 in Snow Light Snow
3:01 PM 33.1 °F 24.9 °F 30.0 °F 89% 29.39 in 1.0 mi WNW 10.4 mph 24.2 mph 0.00 in Snow Light Snow
3:15 PM 33.1 °F 25.5 °F 30.0 °F 89% 29.41 in 1.2 mi West 9.2 mph 20.7 mph 0.00 in Snow Light Snow
3:29 PM 33.1 °F 24.4 °F 30.0 °F 89% 29.41 in 2.0 mi WNW 11.5 mph - 0.00 in Snow Light Snow
3:33 PM 33.1 °F 28.7 °F 30.0 °F 89% 29.40 in 3.0 mi WNW 4.6 mph - 0.00 in Snow Light Snow
3:52 PM 33.1 °F 26.9 °F 30.0 °F 89% 29.39 in 10.0 mi NW 6.9 mph - 0.00 in   Overcast
4:52 PM 32.0 °F 22.5 °F 26.1 °F 79% 29.43 in 10.0 mi West 12.7 mph 20.7 mph N/A   Overcast
5:52 PM 30.0 °F 18.7 °F 19.9 °F 66% 29.45 in 10.0 mi WNW 16.1 mph 25.3 mph N/A   Overcast
6:52 PM 28.9 °F 19.8 °F 18.0 °F 64% 29.47 in 10.0 mi WNW 10.4 mph 19.6 mph N/A   Clear
7:52 PM 28.0 °F 21.7 °F 18.0 °F 66% 29.48 in 10.0 mi WNW 5.8 mph - N/A   Overcast
8:52 PM 28.0 °F 18.1 °F 16.0 °F 61% 29.50 in 10.0 mi West 11.5 mph 21.9 mph N/A   Overcast
9:52 PM 25.0 °F 12.2 °F 12.0 °F 58% 29.52 in 10.0 mi West 16.1 mph 24.2 mph N/A   Clear
10:52 PM 24.1 °F 15.2 °F 10.0 °F 55% 29.51 in 10.0 mi West 8.1 mph 24.2 mph N/A   Clear
11:52 PM 23.0 °F 11.1 °F 10.0 °F 58% 29.53 in 10.0 mi WNW 12.7 mph 19.6 mph N/A   Partly Cloudy